Find Starlink 11365

NORAD ID: 62886 Int'l Des: 2025-024 Owner: SPXS Country: US Constellation: starlink operational
LEOCIRCULAR

Live Position

Loading 3D Globe...

About Starlink 11365

Description loading...

Upcoming Passes

Passes for default location (London). Set your location on the main map for personalized predictions.

Altitude History

Loading altitude history...

Two-Line Element Set

1 62886U 25024H 26127.14584711 .00277473 00000-0 20664-2 0 9992
2 62886 43.0020 188.7973 0003416 247.5341 112.5165 15.71159733 72668
Epoch: May 7, 2026 • Age: 13 hours

Current Status

Altitude 364.5 km
Velocity 7.69 km/s
Sub-Earth Point -38.78°S, 6.69°E
Launch Date Feb 4, 2025
Age 1.2 years
Type internet

Technical Details

Classification Payload
Mass 960.00 kg
Dry Mass 910.00 kg
Total Mass 960.00 kg
Length 0.30 m
Diameter 4.10 m
Span 29.00 m
Shape Box + pan
Manufacturer SPXS
Bus Type Starlink V2MD
Phase Status In Orbit
Owner/State SPXS/US

Most Searched